When you browse on this site, cookies collect data to enhance your experience and personalize the content and advertising you see.
Visit our Privacy Policy to learn more. By continuing to use the site, you agree to this use of cookies and data.
  • en Suisse
  • Liste des pays
  • À 7 jours
  • Température de l'eau
  • Carte satellitaire
  • Carte météo
  • Widgets météo
  • user-avatar
    Se connecter

    Météo par heure à Tomashhorod

    Ce jour, 20 Juillet, Samedi

    Heure Température Précipitation Vent Pression Humidité
    00:00 +16°C° 0 mm 1 m/s 746 mmHg 84%
    01:00 +16°C° 0 mm 2 m/s 746 mmHg 83%
    02:00 +16°C° 0 mm 2 m/s 746 mmHg 78%
    03:00 +16°C° 0 mm 2 m/s 746 mmHg 79%
    04:00 +16°C° 0 mm 1 m/s 747 mmHg 80%
    05:00 +16°C° 0 mm 1 m/s 747 mmHg 80%
    06:00 +19°C° 0 mm 1 m/s 747 mmHg 77%
    07:00 +19°C° 0 mm 2 m/s 747 mmHg 74%
    08:00 +23°C° 0 mm 2 m/s 747 mmHg 70%
    09:00 +24°C° 0.2 mm 2 m/s 747 mmHg 64%
    10:00 +25°C° 0.2 mm 2 m/s 747 mmHg 57%
    11:00 +27°C° 0.2 mm 2 m/s 747 mmHg 51%
    12:00 +27°C° 0.3 mm 2 m/s 747 mmHg 52%
    13:00 +27°C° 0.3 mm 2 m/s 747 mmHg 53%
    14:00 +27°C° 0.3 mm 2 m/s 747 mmHg 55%
    15:00 +26°C° 0.4 mm 2 m/s 747 mmHg 57%
    16:00 +26°C° 0.4 mm 2 m/s 747 mmHg 60%
    17:00 +26°C° 0.4 mm 2 m/s 747 mmHg 62%
    18:00 +24°C° 0 mm 1 m/s 747 mmHg 68%
    19:00 +23°C° 0 mm 1 m/s 747 mmHg 75%
    20:00 +21°C° 0 mm 1 m/s 746 mmHg 81%
    21:00 +20°C° 0.1 mm 1 m/s 747 mmHg 84%
    22:00 +19°C° 0.1 mm 1 m/s 747 mmHg 86%
    23:00 +19°C° 0.1 mm 1 m/s 747 mmHg 89%

    Demain, 21 Juillet, Dimanche

    Heure Température Précipitation Vent Pression Humidité
    00:00 +18°C° 0 mm 1 m/s 747 mmHg 90%
    01:00 +18°C° 0 mm 1 m/s 747 mmHg 90%
    02:00 +18°C° 0 mm 1 m/s 747 mmHg 91%
    03:00 +16°C° 0 mm 0 m/s 747 mmHg 91%
    04:00 +15°C° 0 mm 0 m/s 747 mmHg 91%
    05:00 +15°C° 0 mm 0 m/s 747 mmHg 91%
    06:00 +17°C° 0 mm 0 m/s 747 mmHg 85%
    07:00 +19°C° 0 mm 0 m/s 747 mmHg 79%
    08:00 +21°C° 0 mm 0 m/s 747 mmHg 73%
    09:00 +23°C° 0 mm 0 m/s 748 mmHg 65%
    10:00 +25°C° 0 mm 0 m/s 748 mmHg 57%
    11:00 +27°C° 0 mm 0 m/s 748 mmHg 49%
    12:00 +27°C° 0 mm 0 m/s 747 mmHg 47%
    13:00 +28°C° 0 mm 0 m/s 747 mmHg 44%
    14:00 +30°C° 0 mm 1 m/s 747 mmHg 42%
    15:00 +30°C° 0 mm 1 m/s 747 mmHg 46%
    16:00 +29°C° 0 mm 1 m/s 747 mmHg 50%
    17:00 +28°C° 0 mm 1 m/s 746 mmHg 54%
    18:00 +26°C° 0.1 mm 1 m/s 746 mmHg 62%
    19:00 +25°C° 0.1 mm 2 m/s 746 mmHg 71%
    20:00 +23°C° 0.1 mm 2 m/s 746 mmHg 79%
    21:00 +21°C° 0.1 mm 2 m/s 746 mmHg 81%
    22:00 +21°C° 0.1 mm 1 m/s 746 mmHg 83%
    23:00 +21°C° 0.1 mm 1 m/s 746 mmHg 85%

    Après-demain, 22 Juillet, Lundi

    Heure Température Précipitation Vent Pression Humidité
    00:00 +19°C° 0.3 mm 2 m/s 746 mmHg 87%
    01:00 +19°C° 0.3 mm 2 m/s 746 mmHg 89%
    02:00 +19°C° 0.3 mm 2 m/s 746 mmHg 91%
    03:00 +19°C° 0.8 mm 2 m/s 746 mmHg 93%
    04:00 +19°C° 0.8 mm 2 m/s 746 mmHg 95%
    05:00 +18°C° 0.8 mm 2 m/s 746 mmHg 96%
    06:00 +19°C° 0.1 mm 2 m/s 746 mmHg 93%
    07:00 +20°C° 0.1 mm 2 m/s 746 mmHg 90%
    08:00 +21°C° 0.1 mm 3 m/s 746 mmHg 88%
    09:00 +22°C° 0.3 mm 3 m/s 746 mmHg 85%
    10:00 +22°C° 0.3 mm 4 m/s 746 mmHg 82%
    11:00 +23°C° 0.3 mm 5 m/s 746 mmHg 79%
    12:00 +23°C° 0.2 mm 5 m/s 746 mmHg 76%
    13:00 +23°C° 0.2 mm 5 m/s 746 mmHg 73%
    14:00 +23°C° 0.2 mm 5 m/s 746 mmHg 70%
    15:00 +23°C° 0.2 mm 5 m/s 746 mmHg 69%
    16:00 +25°C° 0.2 mm 5 m/s 746 mmHg 68%
    17:00 +25°C° 0.2 mm 5 m/s 746 mmHg 66%
    18:00 +22°C° 0 mm 4 m/s 746 mmHg 72%
    19:00 +21°C° 0 mm 4 m/s 746 mmHg 78%
    20:00 +19°C° 0 mm 3 m/s 746 mmHg 83%
    21:00 +19°C° 0 mm 3 m/s 747 mmHg 86%
    22:00 +18°C° 0 mm 3 m/s 747 mmHg 89%
    23:00 +17°C° 0 mm 3 m/s 747 mmHg 93%

    23 Juillet, Mardi

    Heure Température Précipitation Vent Pression Humidité
    00:00 +17°C° 0 mm 3 m/s 747 mmHg 93%
    01:00 +16°C° 0 mm 3 m/s 747 mmHg 94%
    02:00 +16°C° 0 mm 3 m/s 747 mmHg 95%
    03:00 +14°C° 0 mm 3 m/s 747 mmHg 95%
    04:00 +14°C° 0 mm 3 m/s 747 mmHg 95%
    05:00 +13°C° 0 mm 3 m/s 747 mmHg 95%
    06:00 +14°C° 0 mm 3 m/s 747 mmHg 91%
    07:00 +15°C° 0 mm 4 m/s 747 mmHg 87%
    08:00 +15°C° 0 mm 4 m/s 746 mmHg 83%
    09:00 +18°C° 0 mm 4 m/s 747 mmHg 77%
    10:00 +19°C° 0 mm 4 m/s 747 mmHg 71%
    11:00 +21°C° 0 mm 4 m/s 747 mmHg 66%
    12:00 +21°C° 0.2 mm 5 m/s 746 mmHg 67%
    13:00 +21°C° 0.2 mm 5 m/s 746 mmHg 69%
    14:00 +21°C° 0.2 mm 5 m/s 746 mmHg 71%
    15:00 +20°C° 0.3 mm 4 m/s 746 mmHg 78%
    16:00 +18°C° 0.3 mm 3 m/s 746 mmHg 85%
    17:00 +17°C° 0.3 mm 3 m/s 745 mmHg 92%
    18:00 +17°C° 0.1 mm 2 m/s 745 mmHg 92%
    19:00 +17°C° 0.1 mm 2 m/s 745 mmHg 93%
    20:00 +17°C° 0.1 mm 2 m/s 745 mmHg 93%
    21:00 +17°C° 0.1 mm 3 m/s 745 mmHg 94%
    22:00 +17°C° 0.1 mm 3 m/s 745 mmHg 94%
    23:00 +17°C° 0.1 mm 3 m/s 745 mmHg 95%

    24 Juillet, Mercredi

    Heure Température Précipitation Vent Pression Humidité
    00:00 +17°C° 0.1 mm 3 m/s 745 mmHg 96%
    01:00 +17°C° 0.1 mm 3 m/s 745 mmHg 96%
    02:00 +17°C° 0.1 mm 3 m/s 745 mmHg 97%
    03:00 +17°C° 0 mm 3 m/s 745 mmHg 97%
    04:00 +17°C° 0 mm 3 m/s 745 mmHg 97%
    05:00 +17°C° 0 mm 3 m/s 745 mmHg 97%
    06:00 +17°C° 0 mm 3 m/s 745 mmHg 95%
    07:00 +18°C° 0 mm 3 m/s 746 mmHg 93%
    08:00 +18°C° 0 mm 3 m/s 746 mmHg 91%
    09:00 +20°C° 0 mm 3 m/s 746 mmHg 85%
    10:00 +21°C° 0 mm 3 m/s 746 mmHg 79%
    11:00 +24°C° 0 mm 3 m/s 747 mmHg 72%
    12:00 +25°C° 0.7 mm 3 m/s 746 mmHg 72%
    13:00 +25°C° 0.7 mm 4 m/s 746 mmHg 72%
    14:00 +26°C° 0.7 mm 4 m/s 746 mmHg 72%
    15:00 +26°C° 0.7 mm 4 m/s 746 mmHg 70%
    16:00 +26°C° 0.7 mm 4 m/s 746 mmHg 69%
    17:00 +27°C° 0.7 mm 3 m/s 746 mmHg 67%
    18:00 +25°C° 0.1 mm 3 m/s 746 mmHg 72%
    19:00 +22°C° 0.1 mm 3 m/s 746 mmHg 77%
    20:00 +21°C° 0.1 mm 2 m/s 746 mmHg 83%
    21:00 +20°C° 0 mm 2 m/s 747 mmHg 86%
    22:00 +19°C° 0 mm 2 m/s 747 mmHg 89%
    23:00 +18°C° 0 mm 2 m/s 747 mmHg 93%

    25 Juillet, Jeudi

    Heure Température Précipitation Vent Pression Humidité
    00:00 +18°C° 0 mm 2 m/s 747 mmHg 94%
    01:00 +18°C° 0 mm 2 m/s 747 mmHg 95%
    02:00 +17°C° 0 mm 2 m/s 747 mmHg 96%
    03:00 +17°C° 0 mm 2 m/s 747 mmHg 96%
    04:00 +17°C° 0 mm 2 m/s 747 mmHg 96%
    05:00 +17°C° 0 mm 2 m/s 747 mmHg 96%
    06:00 +19°C° 0 mm 2 m/s 747 mmHg 90%
    07:00 +20°C° 0 mm 2 m/s 747 mmHg 84%
    08:00 +22°C° 0 mm 3 m/s 747 mmHg 77%
    09:00 +25°C° 0 mm 3 m/s 747 mmHg 71%
    10:00 +26°C° 0 mm 3 m/s 747 mmHg 65%
    11:00 +28°C° 0 mm 3 m/s 747 mmHg 58%
    12:00 +28°C° 0 mm 3 m/s 747 mmHg 56%
    13:00 +29°C° 0 mm 3 m/s 747 mmHg 54%
    14:00 +29°C° 0 mm 3 m/s 747 mmHg 52%
    15:00 +29°C° 0 mm 3 m/s 747 mmHg 53%
    16:00 +29°C° 0 mm 3 m/s 747 mmHg 55%
    17:00 +29°C° 0 mm 3 m/s 746 mmHg 56%
    18:00 +27°C° 0 mm 3 m/s 747 mmHg 64%
    19:00 +25°C° 0 mm 3 m/s 747 mmHg 72%
    20:00 +23°C° 0 mm 2 m/s 747 mmHg 79%
    21:00 +23°C° 0 mm 2 m/s 747 mmHg 83%
    22:00 +21°C° 0 mm 2 m/s 747 mmHg 86%
    23:00 +20°C° 0 mm 2 m/s 747 mmHg 89%
    Voir plus